Retour au catalogue

RASSVET-3 11

ActifSciencePO
NORAD 68370·PAYLOAD·🇷🇺 Russia

Lancé Mar 23, 2026 depuis Plesetsk Cosmodrome

Loading…

Prochains Passages (prochaines 24 heures)

TLE

FraisSource: Space-Track

Époque: Sep 14, 2026, 14:10 UTC

1 68370U 26061L   26257.59084033  .00024034  00000-0  24748-3 0  9994
2 68370  82.2867 273.7493 0004308 174.7049 185.4256 15.64680949 27586

Suivez RASSVET-3 11 en temps réel avec AllMySat

Download on the App Store